Weather History for Abbeville, LA

Change the Weather History Date:

Tuesday, December 4, 2012

  Actual Average (KARA) Record (KARA)
Temperature  
Mean Temperature 66 °F 56 °F  
Max Temperature 71 °F 67 °F 82 °F (1998)
Min Temperature 61 °F 46 °F 28 °F (2006)
Degree Days  
Heating Degree Days 0 10  
Month to date heating degree days 38  
Since 1 July heating degree days 233  
Cooling Degree Days 1 1  
Month to date cooling degree days 4  
Year to date cooling degree days 2796  
Growing Degree Days 16 (Base 50)    
Moisture  
Dew Point 68 °F    
Average Humidity 100    
Maximum Humidity 100    
Minimum Humidity 94    
Precipitation  
Precipitation 0.00 in 0.20 in 4.94 in (1982)
Month to date precipitation 0.78  
Year to date precipitation 55.47  
Sea Level Pressure  
Sea Level Pressure 30.15 in    
Wind  
Wind Speed 5 mph ()    
Max Wind Speed 14 mph    
Max Gust Speed 18 mph    
Visibility 8.4 miles    
Events Rain , Thunderstorm    
T = Trace of Precipitation, MM = Missing Value Source: Averaged Metar Reports

Daily Weather History Graph

Daily Weather History Graph

Search for Another Location

Airport:

Trip Planner

Search our weather history database for the weather conditions in past years. The results will help you decide how hot, cold, wet, or windy it might be!

Date:

Astronomy

Dec. 04, 2012 Rise Set
Actual Time 6:49 AM CST 5:08 PM CST
Civil Twilight 6:23 AM CST 5:34 PM CST
Nautical Twilight 5:53 AM CST 6:03 PM CST
Astronomical Twilight 5:24 AM CST 6:33 PM CST
Moon 10:39 PM CST (12/4) 10:58 AM CST (12/4)
Length of Visible Light 11h 11m
Length of Day
10h 18m
Waning Gibbous, 69% of the Moon is Illuminated
Dec 4
Waning Gibbous
Dec 6
Last Quarter
Dec 13
New
Dec 19
First Quarter
Dec 28
Full

Hourly Weather History & Observations

Time (CST) Temp. Dew Point Humidity Pressure Visibility Wind Dir Wind Speed Gust Speed Precip Events Conditions
12:15 AM 69.8 °F 69.6 °F 99% 30.13 in 10.0 mi SE 6.9 mph - N/A   Clear
12:35 AM 69.6 °F 69.6 °F 100% 30.12 in 10.0 mi SE 6.9 mph - N/A   Scattered Clouds
12:55 AM 69.3 °F 69.3 °F 100% 30.12 in 10.0 mi SE 6.9 mph - N/A   Scattered Clouds
1:15 AM 69.4 °F 69.4 °F 100% 30.12 in 10.0 mi SE 9.2 mph - N/A   Scattered Clouds
1:35 AM 69.4 °F 69.4 °F 100% 30.12 in 10.0 mi SE 8.1 mph - N/A   Scattered Clouds
1:55 AM 69.8 °F 69.8 °F 100% 30.12 in 10.0 mi SE 8.1 mph - N/A   Mostly Cloudy
2:15 AM 69.8 °F 69.8 °F 100% 30.12 in 10.0 mi SE 9.2 mph - N/A   Mostly Cloudy
2:35 AM 69.8 °F 69.8 °F 100% 30.12 in 10.0 mi SE 9.2 mph - N/A   Scattered Clouds
2:55 AM 70.0 °F 69.8 °F 99% 30.11 in 10.0 mi SE 6.9 mph - N/A   Scattered Clouds
3:15 AM 70.0 °F 70.0 °F 100% 30.11 in 10.0 mi SE 6.9 mph - N/A   Scattered Clouds
3:35 AM 69.8 °F 69.8 °F 100% 30.11 in 10.0 mi SE 6.9 mph - N/A Thunderstorm Clear
3:55 AM 69.8 °F 69.8 °F 100% 30.11 in 10.0 mi SE 6.9 mph - N/A   Scattered Clouds
4:15 AM 70.0 °F 70.0 °F 100% 30.11 in 10.0 mi SE 8.1 mph - N/A   Scattered Clouds
4:35 AM 70.0 °F 70.0 °F 100% 30.12 in 10.0 mi SE 5.8 mph - N/A   Mostly Cloudy
4:55 AM 70.2 °F 70.2 °F 100% 30.13 in 10.0 mi SE 4.6 mph - N/A Rain Rain
5:15 AM 70.0 °F 70.0 °F 100% 30.13 in 10.0 mi ESE 4.6 mph - N/A   Overcast
5:35 AM 70.0 °F 70.0 °F 100% 30.13 in 10.0 mi SE 5.8 mph - N/A   Overcast
5:55 AM 70.0 °F 70.0 °F 100% 30.13 in 10.0 mi ESE 4.6 mph - N/A   Mostly Cloudy
6:15 AM 69.8 °F 69.8 °F 100% 30.14 in 10.0 mi ESE 3.5 mph - N/A   Overcast
6:35 AM 69.8 °F 69.8 °F 100% 30.15 in 10.0 mi ESE 5.8 mph - N/A   Overcast
6:55 AM 70.0 °F 70.0 °F 100% 30.15 in 10.0 mi SE 4.6 mph - N/A   Overcast
7:15 AM 69.8 °F 69.8 °F 100% 30.16 in 10.0 mi SE 3.5 mph - N/A   Mostly Cloudy
7:35 AM 70.2 °F 70.2 °F 100% 30.16 in 10.0 mi SE 3.5 mph - N/A   Mostly Cloudy
7:55 AM 70.3 °F 70.3 °F 100% 30.17 in 10.0 mi SE 3.5 mph - N/A   Overcast
8:15 AM 70.7 °F 70.7 °F 100% 30.18 in 10.0 mi Calm Calm - N/A Rain Light Rain
8:35 AM 70.9 °F 70.9 °F 100% 30.18 in 5.0 mi Calm Calm - N/A Rain , Thunderstorm Light Thunderstorms and Rain
8:55 AM 70.9 °F 70.9 °F 100% 30.19 in 10.0 mi Calm Calm - N/A   Overcast
9:15 AM 70.7 °F 70.7 °F 100% 30.20 in 10.0 mi Calm Calm - N/A   Scattered Clouds
9:35 AM 71.1 °F 71.1 °F 100% 30.21 in 10.0 mi Calm Calm - N/A   Drizzle
9:55 AM 71.6 °F 71.6 °F 100% 30.21 in 10.0 mi Calm Calm - N/A   Overcast
10:15 AM 71.6 °F 71.6 °F 100% 30.21 in 7.0 mi Calm Calm - N/A   Drizzle
10:35 AM 71.2 °F 71.2 °F 100% 30.21 in 7.0 mi East 4.6 mph - N/A Rain , Thunderstorm Rain
10:55 AM 71.4 °F 71.4 °F 100% 30.20 in 7.0 mi East 4.6 mph - N/A Rain , Thunderstorm Rain
11:15 AM 71.1 °F 71.1 °F 100% 30.19 in 7.0 mi ESE 5.8 mph - N/A Thunderstorm Unknown
11:35 AM 70.0 °F 70.0 °F 100% 30.18 in 1.5 mi SE 8.1 mph - N/A Rain , Thunderstorm Heavy Thunderstorms and Rain
11:55 AM 69.6 °F 69.1 °F 98% 30.18 in 4.0 mi SSE 13.8 mph - N/A Rain , Thunderstorm Light Thunderstorms and Rain
12:15 PM 70.5 °F 69.6 °F 97% 30.17 in 10.0 mi SE 8.1 mph - N/A Rain , Thunderstorm Thunderstorms and Rain
12:35 PM 70.9 °F 70.9 °F 100% 30.16 in 7.0 mi ESE 10.4 mph 16.1 mph N/A Rain Light Rain
12:55 PM 68.7 °F 67.6 °F 96% 30.15 in 5.0 mi SE 10.4 mph - N/A Rain , Thunderstorm Thunderstorms and Rain
1:15 PM 69.1 °F 67.3 °F 94% 30.14 in 10.0 mi SE 3.5 mph - N/A Rain Light Rain
1:35 PM 69.4 °F 69.4 °F 100% 30.13 in 2.5 mi ESE 6.9 mph - N/A Rain Light Rain
1:55 PM 70.2 °F 70.2 °F 100% 30.13 in 7.0 mi SSE 8.1 mph - N/A Rain , Thunderstorm Light Thunderstorms and Rain
2:15 PM 70.2 °F 70.2 °F 100% 30.12 in 5.0 mi Calm Calm - N/A Rain , Thunderstorm Thunderstorms and Rain
2:35 PM 70.9 °F 70.9 °F 100% 30.11 in 10.0 mi ESE 4.6 mph - N/A Thunderstorm Unknown
2:55 PM 70.9 °F 70.9 °F 100% 30.11 in 10.0 mi Calm Calm - N/A Thunderstorm Overcast
3:15 PM 70.7 °F 70.7 °F 100% 30.10 in 10.0 mi ESE 3.5 mph - N/A   Overcast
3:35 PM 71.1 °F 71.1 °F 100% 30.10 in 10.0 mi Calm Calm - N/A   Light Drizzle
3:55 PM 70.9 °F 70.9 °F 100% 30.10 in 10.0 mi Calm Calm - N/A Thunderstorm Thunderstorm
4:15 PM 71.1 °F 71.1 °F 100% 30.11 in 10.0 mi Calm Calm - N/A Thunderstorm Overcast
4:35 PM 70.5 °F 70.5 °F 100% 30.12 in 2.5 mi Calm Calm - N/A Rain , Thunderstorm Light Thunderstorms and Rain
4:55 PM 70.2 °F 70.2 °F 100% 30.13 in 7.0 mi NNW 5.8 mph - N/A Rain , Thunderstorm Light Thunderstorms and Rain
5:15 PM 69.4 °F 69.4 °F 100% 30.13 in 3.0 mi NW 4.6 mph - N/A Rain , Thunderstorm Thunderstorms and Rain
5:35 PM 69.3 °F 69.3 °F 100% 30.15 in 7.0 mi NW 3.5 mph - N/A Rain , Thunderstorm Rain
5:55 PM 66.6 °F 66.6 °F 100% 30.16 in 5.0 mi NW 10.4 mph 18.4 mph N/A Rain , Thunderstorm Thunderstorms and Rain
6:15 PM 65.1 °F 65.1 °F 100% 30.18 in 7.0 mi North 13.8 mph - N/A Rain , Thunderstorm Heavy Thunderstorms and Rain
6:35 PM 64.4 °F 64.4 °F 100% 30.18 in 5.0 mi North 10.4 mph - N/A Rain , Thunderstorm Light Thunderstorms and Rain
6:55 PM 64.0 °F 64.0 °F 100% 30.21 in 5.0 mi NNW 6.9 mph - N/A Rain , Thunderstorm Rain
7:15 PM 64.4 °F 64.4 °F 100% 30.21 in 5.0 mi West 5.8 mph - N/A Rain , Thunderstorm Light Thunderstorms and Rain
7:35 PM 64.0 °F 64.0 °F 100% 30.21 in 7.0 mi WNW 6.9 mph - N/A Rain , Thunderstorm Light Thunderstorms and Rain
7:55 PM 64.4 °F 64.4 °F 100% 30.21 in 7.0 mi WNW 3.5 mph - N/A Rain , Thunderstorm Light Thunderstorms and Rain
8:15 PM 64.4 °F 64.4 °F 100% 30.18 in 4.0 mi East 3.5 mph - N/A Rain , Thunderstorm Thunderstorms and Rain
8:35 PM 64.4 °F 64.4 °F 100% 30.16 in 7.0 mi East 6.9 mph - N/A Rain Light Rain
8:55 PM 64.8 °F 64.8 °F 100% 30.13 in 10.0 mi East 9.2 mph - N/A   Light Drizzle
9:15 PM 64.6 °F 64.6 °F 100% 30.13 in 10.0 mi East 10.4 mph 17.3 mph N/A   Drizzle
9:35 PM 64.6 °F 63.5 °F 96% 30.12 in 10.0 mi East 6.9 mph - N/A   Light Drizzle
9:55 PM 64.8 °F 63.1 °F 94% 30.13 in 10.0 mi NNW 9.2 mph - N/A Rain Rain
10:15 PM 63.7 °F 62.6 °F 96% 30.13 in 10.0 mi NNW 6.9 mph - N/A   Scattered Clouds
10:35 PM 62.8 °F 62.4 °F 99% 30.14 in 10.0 mi North 3.5 mph - N/A   Clear
10:55 PM 62.6 °F 62.6 °F 100% 30.14 in 10.0 mi Calm Calm - N/A   Mostly Cloudy
11:15 PM 62.1 °F 62.1 °F 100% 30.14 in 10.0 mi Calm Calm - N/A   Overcast
11:35 PM 61.2 °F 61.2 °F 100% 30.13 in 10.0 mi NNW 4.6 mph - N/A   Scattered Clouds
11:55 PM 61.3 °F 61.3 °F 100% 30.13 in 10.0 mi Calm Calm - N/A   Mostly Cloudy